Collingwood, Ontario

6:37 AM EDT on April 26, 2017 (GMT -0400)
Collingwood

Weather History for CWCO - October, 2012

Change the Weather History Date:

Saturday, October 6, 2012

  Actual Average (CYBN) Record (CYBN)
Temperature  
Mean Temperature 48 °F -  
Max Temperature 53 °F 60 °F 84 °F (2005)
Min Temperature 43 °F 39 °F 26 °F (2006)
Degree Days  
Heating Degree Days 17    
Moisture  
Dew Point 39 °F    
Average Humidity 71    
Maximum Humidity 82    
Minimum Humidity 59    
Precipitation  
Precipitation 0.03 in - - ()
Sea Level Pressure  
Sea Level Pressure 29.85 in    
Wind  
Wind Speed 6 mph ()    
Max Wind Speed 12 mph    
Max Gust Speed 24 mph    
Averages and records for this station are not official NWS values.
T = Trace of Precipitation, MM = Missing Value Source: Averaged Metar Reports

Daily Weather History Graph

Daily Weather History Graph

Search for Another Location

Airport or City:

Trip Planner

Search our weather history database for the weather conditions in past years. The results will help you decide how hot, cold, wet, or windy it might be!

Date:

Astronomy

Oct. 06, 2012 Rise Set
Actual Time 7:25 AM EDT 6:51 PM EDT
Civil Twilight 6:56 AM EDT 7:20 PM EDT
Nautical Twilight 6:22 AM EDT 7:54 PM EDT
Astronomical Twilight 5:48 AM EDT 8:28 PM EDT
Moon 10:55 PM EDT (10/6) 1:29 PM EDT (10/6)
Length of Visible Light 12h 24m
Length of Day
11h 26m
Waning Gibbous, 65% of the Moon is Illuminated
Oct 6
Waning Gibbous
Oct 8
Last Quarter
Oct 15
New
Oct 21
First Quarter
Oct 29
Full

Hourly Weather History & Observations

Time (EDT) Temp. Windchill Dew Point Humidity Pressure Visibility Wind Dir Wind Speed Gust Speed Precip Events Conditions
12:00 AM 51.8 °F - 44.8 °F 77% 29.82 in - South 3.5 mph - N/A   Unknown
1:00 AM 51.8 °F - 42.8 °F 71% 29.80 in - SW 4.6 mph - N/A   Unknown
2:00 AM 51 °F - 43 °F 67% 29.81 in - SW 6.9 mph - -  
2:00 AM 51.1 °F - 43.3 °F 75% 29.81 in - SW 6.9 mph - N/A   Unknown
3:00 AM 50.5 °F - 43.3 °F 76% 29.79 in - SW 4.6 mph - N/A   Unknown
4:00 AM 50.2 °F - 41.9 °F 73% 29.78 in - WSW 5.8 mph - N/A   Unknown
5:00 AM 48.9 °F - 41.0 °F 74% 29.78 in - WSW 5.8 mph - N/A   Unknown
6:00 AM 48.2 °F - 40.8 °F 76% 29.79 in - SW 4.6 mph - N/A   Unknown
7:00 AM 48.2 °F - 39.6 °F 72% 29.79 in - WSW 5.8 mph - N/A   Unknown
8:00 AM 48 °F - 40 °F 66% 29.80 in - WSW 4.6 mph - -  
8:00 AM 48.4 °F - 40.1 °F 73% 29.80 in - WSW 4.6 mph - N/A   Unknown
9:00 AM 48.9 °F - 40.3 °F 72% 29.80 in - WSW 5.8 mph - N/A   Unknown
10:00 AM 50.0 °F - 36.5 °F 60% 29.81 in - WSW 6.9 mph - N/A   Unknown
11:00 AM 49.5 °F - 36.7 °F 61% 29.82 in - WSW 4.6 mph - N/A   Unknown
12:00 PM 50.0 °F - 36.3 °F 59% 29.83 in - West 11.5 mph 18.4 mph N/A   Unknown
1:00 PM 51.6 °F - 37.8 °F 59% 29.83 in - West 9.2 mph 19.6 mph N/A   Unknown
2:00 PM 49 °F - 39 °F 59% 29.84 in - WNW 10.4 mph - -  
2:00 PM 48.7 °F - 39.0 °F 69% 29.84 in - WNW 10.4 mph - N/A   Unknown
3:00 PM 50.4 °F - 38.8 °F 65% 29.85 in - WNW 11.5 mph 24.2 mph N/A   Unknown
4:00 PM 49.5 °F - 37.9 °F 65% 29.87 in - West 10.4 mph 19.6 mph N/A   Unknown
5:00 PM 47.5 °F - 41.2 °F 79% 29.89 in - WSW 6.9 mph - 0.03 in   Unknown
6:00 PM 45.0 °F 41.2 °F 39.7 °F 82% 29.91 in - West 6.9 mph - N/A   Unknown
7:00 PM 45.1 °F 41.4 °F 38.8 °F 79% 29.93 in - West 6.9 mph - N/A   Unknown
8:00 PM 44 °F - 37 °F 68% 29.95 in - West 5.8 mph - -  
8:00 PM 43.9 °F 40.5 °F 36.9 °F 76% 29.95 in - West 5.8 mph - N/A   Unknown
9:00 PM 43.9 °F 40.5 °F 37.2 °F 77% 29.98 in - West 5.8 mph - N/A   Unknown
10:00 PM 43.2 °F 39.7 °F 36.0 °F 76% 29.98 in - West 5.8 mph - N/A   Unknown
11:00 PM 43.5 °F 40.1 °F 35.2 °F 73% 29.99 in - West 5.8 mph - N/A   Unknown